Weather History for Perryton, TX

Change the Weather History Date:

Tuesday, November 15, 2011

  Actual Average Record
Temperature  
Mean Temperature 48 °F -  
Max Temperature 62 °F 57 °F 83 °F (1988)
Min Temperature 33 °F 29 °F 11 °F (1982)
Degree Days  
Heating Degree Days 18    
Moisture  
Dew Point 26 °F    
Average Humidity 48    
Maximum Humidity 87    
Minimum Humidity 18    
Precipitation  
Precipitation 0.00 in - - ()
Sea Level Pressure  
Sea Level Pressure 29.82 in    
Wind  
Wind Speed 10 mph (NE)    
Max Wind Speed 16 mph    
Max Gust Speed 21 mph    
Visibility 10 miles    
Events      
Averages and records for this station are not official NWS values.
T = Trace of Precipitation, MM = Missing Value Source: NWS Daily Summary

Daily Weather History Graph

Daily Weather History Graph

Search for Another Location

Airport:

Trip Planner

Search our weather history database for the weather conditions in past years. The results will help you decide how hot, cold, wet, or windy it might be!

Date:

Astronomy

Nov. 15, 2011 Rise Set
Actual Time 7:20 AM CST 5:34 PM CST
Civil Twilight 6:52 AM CST 6:02 PM CST
Nautical Twilight 6:21 AM CST 6:33 PM CST
Astronomical Twilight 5:51 AM CST 7:03 PM CST
Moon 9:46 PM CST (11/15) 11:19 AM CST (11/15)
Length of Visible Light 11h 09m
Length of Day
10h 14m
Waning Gibbous, 79% of the Moon is Illuminated
Nov 15
Waning Gibbous
Nov 18
Last Quarter
Nov 25
New
Dec 2
First Quarter
Dec 10
Full

Hourly Weather History & Observations

Time (CST) Temp. Windchill Dew Point Humidity Pressure Visibility Wind Dir Wind Speed Gust Speed Precip Events Conditions
12:15 AM 37.4 °F 32.1 °F 32.0 °F 81% 29.73 in 10.0 mi South 6.9 mph - N/A   Clear
12:35 AM 37.4 °F 31.4 °F 33.8 °F 87% 29.73 in 10.0 mi South 8.1 mph - N/A   Clear
12:55 AM 37.4 °F 32.1 °F 32.0 °F 81% 29.73 in 10.0 mi SSW 6.9 mph - N/A   Clear
1:15 AM 37.4 °F 30.8 °F 33.8 °F 87% 29.73 in 10.0 mi SW 9.2 mph - N/A   Clear
1:35 AM 39.2 °F 33.0 °F 33.8 °F 81% 29.73 in 10.0 mi SW 9.2 mph - N/A   Clear
1:55 AM 42.8 °F 37.5 °F 33.8 °F 70% 29.73 in 10.0 mi SW 9.2 mph - N/A   Clear
2:15 AM 41.0 °F 34.7 °F 33.8 °F 76% 29.73 in 10.0 mi WSW 10.4 mph - N/A   Clear
2:35 AM 39.2 °F 33.6 °F 32.0 °F 75% 29.73 in 10.0 mi WSW 8.1 mph - N/A   Clear
2:55 AM 39.2 °F 32.0 °F 32.0 °F 75% 29.73 in 10.0 mi West 11.5 mph - N/A   Clear
3:15 AM 39.2 °F 32.0 °F 32.0 °F 75% 29.73 in 10.0 mi West 11.5 mph - N/A   Clear
3:35 AM 37.4 °F 29.8 °F 32.0 °F 81% 29.73 in 10.0 mi West 11.5 mph - N/A   Clear
3:55 AM 37.4 °F 28.9 °F 32.0 °F 81% 29.73 in 10.0 mi West 13.8 mph - N/A   Clear
4:15 AM 37.4 °F 30.8 °F 30.2 °F 75% 29.73 in 10.0 mi West 9.2 mph - N/A   Clear
4:35 AM 37.4 °F 29.8 °F 30.2 °F 75% 29.72 in 10.0 mi WNW 11.5 mph - N/A   Clear
4:55 AM 37.4 °F 31.4 °F 30.2 °F 75% 29.73 in 10.0 mi WNW 8.1 mph - N/A   Clear
5:15 AM 35.6 °F 28.6 °F 30.2 °F 81% 29.74 in 10.0 mi West 9.2 mph - N/A   Clear
5:35 AM 35.6 °F 29.9 °F 30.2 °F 81% 29.75 in 10.0 mi West 6.9 mph - N/A   Clear
6:55 AM 33.8 °F 25.8 °F 28.4 °F 81% 29.76 in 10.0 mi West 10.4 mph - N/A   Clear
7:15 AM 33.8 °F 25.3 °F 28.4 °F 81% 29.76 in 10.0 mi WNW 11.5 mph - N/A   Clear
7:35 AM 33.8 °F 26.4 °F 28.4 °F 81% 29.78 in 10.0 mi WNW 9.2 mph - N/A   Clear
8:15 AM 37.4 °F 30.8 °F 30.2 °F 75% 29.80 in 10.0 mi NW 9.2 mph - N/A   Clear
8:35 AM 42.8 °F 35.8 °F 30.2 °F 61% 29.82 in 10.0 mi NW 13.8 mph - N/A   Clear
8:55 AM 44.6 °F 38.4 °F 30.2 °F 57% 29.83 in 10.0 mi NNW 12.7 mph - N/A   Clear
9:15 AM 46.4 °F 41.9 °F 30.2 °F 53% 29.84 in 10.0 mi NNW 9.2 mph - N/A   Clear
9:35 AM 50.0 °F - 30.2 °F 47% 29.85 in 10.0 mi North 10.4 mph - N/A   Clear
10:15 AM 51.8 °F - 28.4 °F 41% 29.85 in 10.0 mi North 11.5 mph - N/A   Clear
10:35 AM 55.4 °F - 24.8 °F 31% 29.85 in 10.0 mi NNE 12.7 mph - N/A   Clear
10:55 AM 59.0 °F - 23.0 °F 25% 29.86 in 10.0 mi ENE 15.0 mph - N/A   Clear
11:15 AM 59.0 °F - 19.4 °F 22% 29.85 in 10.0 mi East 16.1 mph - N/A   Clear
11:35 AM 60.8 °F - 21.2 °F 22% 29.86 in 10.0 mi ENE 12.7 mph - N/A   Clear
11:55 AM 60.8 °F - 19.4 °F 20% 29.86 in 10.0 mi ENE 13.8 mph 20.7 mph N/A   Clear
12:15 PM 60.8 °F - 19.4 °F 20% 29.85 in 10.0 mi East 12.7 mph 19.6 mph N/A   Clear
12:35 PM 60.8 °F - 21.2 °F 22% 29.85 in 10.0 mi East 12.7 mph 18.4 mph N/A   Clear
12:55 PM 62.6 °F - 17.6 °F 18% 29.85 in 10.0 mi ENE 11.5 mph 19.6 mph N/A   Clear
1:15 PM 62.6 °F - 19.4 °F 19% 29.85 in 10.0 mi ENE 10.4 mph 18.4 mph N/A   Clear
1:35 PM 62.6 °F - 19.4 °F 19% 29.84 in 10.0 mi ENE 13.8 mph 20.7 mph N/A   Clear
1:55 PM 62.6 °F - 19.4 °F 19% 29.83 in 10.0 mi East 11.5 mph - N/A   Clear
2:15 PM 62.6 °F - 21.2 °F 20% 29.83 in 10.0 mi ENE 13.8 mph - N/A   Clear
2:35 PM 62.6 °F - 19.4 °F 19% 29.83 in 10.0 mi East 11.5 mph 17.3 mph N/A   Clear
3:15 PM 62.6 °F - 21.2 °F 20% 29.83 in 10.0 mi East 12.7 mph - N/A   Clear
3:35 PM 62.6 °F - 21.2 °F 20% 29.83 in 10.0 mi East 10.4 mph 16.1 mph N/A   Clear
3:55 PM 62.6 °F - 21.2 °F 20% 29.84 in 10.0 mi ENE 10.4 mph 17.3 mph N/A   Clear
4:15 PM 62.6 °F - 21.2 °F 20% 29.84 in 10.0 mi East 11.5 mph - N/A   Clear
4:35 PM 60.8 °F - 21.2 °F 22% 29.85 in 10.0 mi East 9.2 mph - N/A   Clear
4:55 PM 59.0 °F - 21.2 °F 23% 29.85 in 10.0 mi ENE 8.1 mph - N/A   Clear
5:15 PM 55.4 °F - 21.2 °F 26% 29.85 in 10.0 mi ENE 6.9 mph - N/A   Clear
5:35 PM 53.6 °F - 23.0 °F 30% 29.86 in 10.0 mi ENE 6.9 mph - N/A   Clear
5:55 PM 51.8 °F - 23.0 °F 33% 29.86 in 10.0 mi ENE 5.8 mph - N/A   Clear
6:15 PM 50.0 °F - 23.0 °F 35% 29.87 in 10.0 mi ENE 6.9 mph - N/A   Clear
6:35 PM 50.0 °F - 23.0 °F 35% 29.88 in 10.0 mi ENE 8.1 mph - N/A   Clear
6:55 PM 48.2 °F - 23.0 °F 37% 29.88 in 10.0 mi ENE 5.8 mph - N/A   Clear
7:15 PM 48.2 °F - 23.0 °F 37% 29.89 in 10.0 mi ENE 6.9 mph - N/A   Clear
7:35 PM 46.4 °F 42.9 °F 23.0 °F 40% 29.90 in 10.0 mi East 6.9 mph - N/A   Clear
7:55 PM 44.6 °F 40.2 °F 23.0 °F 43% 29.90 in 10.0 mi East 8.1 mph - N/A   Clear
8:15 PM 46.4 °F 41.5 °F 23.0 °F 40% 29.91 in 10.0 mi East 10.4 mph - N/A   Clear
8:35 PM 46.4 °F 41.9 °F 23.0 °F 40% 29.91 in 10.0 mi East 9.2 mph - N/A   Clear
8:55 PM 44.6 °F 40.2 °F 24.8 °F 46% 29.91 in 10.0 mi East 8.1 mph - N/A   Clear
9:15 PM 44.6 °F 40.2 °F 23.0 °F 43% 29.91 in 10.0 mi East 8.1 mph - N/A   Clear
9:35 PM 42.8 °F 38.0 °F 24.8 °F 49% 29.92 in 10.0 mi East 8.1 mph - N/A   Clear
9:55 PM 41.0 °F 36.4 °F 24.8 °F 53% 29.92 in 10.0 mi East 6.9 mph - N/A   Clear
10:15 PM 37.4 °F 33.8 °F 24.8 °F 60% 29.93 in 10.0 mi ESE 4.6 mph - N/A   Clear
10:35 PM 41.0 °F 37.1 °F 24.8 °F 53% 29.94 in 10.0 mi East 5.8 mph - N/A   Clear
10:55 PM 39.2 °F 34.2 °F 24.8 °F 56% 29.94 in 10.0 mi East 6.9 mph - N/A   Clear
11:15 PM 39.2 °F 34.2 °F 26.6 °F 61% 29.94 in 10.0 mi ENE 6.9 mph - N/A   Clear
11:35 PM 35.6 °F 29.9 °F 26.6 °F 70% 29.95 in 10.0 mi NE 6.9 mph - N/A   Clear
11:55 PM 37.4 °F 30.8 °F 26.6 °F 65% 29.96 in 10.0 mi NE 9.2 mph - N/A   Clear